TimeCST,TemperatureF,Dew PointF,Humidity,Sea Level PressureIn,VisibilityMPH,Wind Direction,Wind SpeedMPH,Gust SpeedMPH,PrecipitationIn,Events,Conditions,WindDirDegrees,DateUTC
12:53 AM,34.0,27.0,75,30.12,10.0,East,4.6,-,N/A,,Overcast,90,2012-12-28 06:53:00
1:53 AM,33.1,27.0,78,30.13,10.0,ESE,4.6,-,N/A,,Overcast,120,2012-12-28 07:53:00
2:53 AM,33.1,27.0,78,30.11,10.0,Calm,Calm,-,N/A,,Overcast,0,2012-12-28 08:53:00
3:53 AM,33.1,28.0,82,30.09,10.0,Calm,Calm,-,N/A,,Overcast,0,2012-12-28 09:53:00
4:53 AM,33.1,28.9,85,30.06,10.0,East,4.6,-,N/A,,Overcast,100,2012-12-28 10:53:00
5:53 AM,34.0,28.0,79,30.10,10.0,Calm,Calm,-,N/A,,Overcast,0,2012-12-28 11:53:00
6:08 AM,33.8,28.4,81,30.08,10.0,Calm,Calm,-,N/A,,Overcast,0,2012-12-28 12:08:00
6:53 AM,34.0,28.0,79,30.11,10.0,Calm,Calm,-,N/A,,Overcast,0,2012-12-28 12:53:00
7:53 AM,34.0,28.0,79,30.12,10.0,Calm,Calm,-,N/A,,Mostly Cloudy,0,2012-12-28 13:53:00
8:53 AM,36.0,28.9,76,30.12,10.0,SSE,3.5,-,N/A,,Clear,150,2012-12-28 14:53:00
9:53 AM,37.0,28.9,73,30.12,10.0,SE,3.5,-,N/A,,Clear,130,2012-12-28 15:53:00
10:53 AM,37.9,28.9,70,30.08,10.0,SE,4.6,-,N/A,,Overcast,130,2012-12-28 16:53:00
11:53 AM,39.9,30.9,70,30.02,10.0,East,5.8,-,N/A,,Mostly Cloudy,80,2012-12-28 17:53:00
12:53 PM,39.0,30.0,70,29.99,10.0,East,4.6,-,N/A,,Mostly Cloudy,80,2012-12-28 18:53:00
1:53 PM,39.9,32.0,73,29.99,10.0,East,5.8,-,0.00,,Overcast,100,2012-12-28 19:53:00
2:53 PM,39.0,32.0,76,29.96,10.0,East,5.8,-,0.00,Rain,Light Rain,90,2012-12-28 20:53:00
3:53 PM,37.9,34.0,86,29.94,7.0,East,4.6,-,0.00,Rain,Light Rain,80,2012-12-28 21:53:00
4:53 PM,37.9,35.1,89,29.91,8.0,East,5.8,-,0.03,Rain,Light Rain,90,2012-12-28 22:53:00
5:53 PM,37.9,35.1,89,29.88,5.0,East,8.1,-,0.06,Rain,Light Rain,100,2012-12-28 23:53:00
6:53 PM,37.9,35.1,89,29.84,6.0,East,8.1,-,0.01,Rain,Light Rain,100,2012-12-29 00:53:00
7:51 PM,39.2,35.6,87,29.80,8.0,East,5.8,-,0.00,Rain,Light Rain,90,2012-12-29 01:51:00
7:53 PM,39.0,36.0,89,29.82,7.0,ENE,4.6,-,0.00,Rain,Light Rain,70,2012-12-29 01:53:00
8:18 PM,39.2,35.6,87,29.79,4.0,ENE,6.9,-,0.05,Rain,Rain,70,2012-12-29 02:18:00
8:22 PM,39.2,35.6,87,29.79,4.0,ENE,5.8,-,0.06,Rain,Rain,70,2012-12-29 02:22:00
8:34 PM,39.2,35.6,87,29.79,5.0,NE,5.8,-,0.07,Rain,Light Rain,50,2012-12-29 02:34:00
8:44 PM,39.2,35.6,87,29.80,3.0,NNE,4.6,-,0.10,Rain,Rain,30,2012-12-29 02:44:00
8:53 PM,37.9,36.0,93,29.81,4.0,NNE,3.5,-,0.12,Rain,Rain,20,2012-12-29 02:53:00
9:08 PM,37.4,37.4,100,29.82,2.0,Calm,Calm,-,0.06,Rain,Heavy Rain,0,2012-12-29 03:08:00
9:38 PM,37.4,37.4,100,29.80,4.0,Calm,Calm,-,0.13,Rain,Light Rain,0,2012-12-29 03:38:00
9:48 PM,37.4,37.4,100,29.80,4.0,NE,3.5,-,0.14,Rain,Light Rain,40,2012-12-29 03:48:00
9:53 PM,37.9,36.0,93,29.80,4.0,NE,3.5,-,0.14,Rain,Light Rain,50,2012-12-29 03:53:00
10:00 PM,37.4,35.6,93,29.78,4.0,ENE,4.6,-,0.00,Rain,Light Rain,60,2012-12-29 04:00:00
10:53 PM,37.9,36.0,93,29.78,3.0,ENE,3.5,-,0.04,Rain,Light Rain,70,2012-12-29 04:53:00
11:53 PM,37.0,36.0,96,29.78,4.0,Calm,Calm,-,0.08,Rain,Light Rain,0,2012-12-29 05:53:00